Time,TemperatureF,DewpointF,PressureIn,WindDirection,WindDirectionDegrees,WindSpeedMPH,WindSpeedGustMPH,Humidity,HourlyPrecipIn,Conditions,Clouds,dailyrainin,SoftwareType,DateUTC
2013-04-21 00:01:00,54.3,52.3,30.18,NW,312,0.0,0.0,93,0.00,RA,,0.00,WeatherDisplay:10.37,2013-04-21 04:01:00,
2013-04-21 00:06:00,54.2,52.2,30.18,NW,312,0.0,0.0,93,0.00,RA,,0.00,WeatherDisplay:10.37,2013-04-21 04:06:00,
2013-04-21 00:12:00,54.0,52.0,30.18,NW,312,0.0,0.0,93,0.00,CLR,,0.00,WeatherDisplay:10.37,2013-04-21 04:12:00,
2013-04-21 00:17:00,53.9,51.9,30.18,NW,312,0.0,0.0,93,0.00,CLR,,0.00,WeatherDisplay:10.37,2013-04-21 04:17:00,
2013-04-21 00:22:00,53.8,51.8,30.19,NW,312,0.0,0.0,93,0.00,CLR,,0.00,WeatherDisplay:10.37,2013-04-21 04:22:00,
2013-04-21 00:27:00,53.7,51.7,30.18,NW,312,0.0,0.0,93,0.00,CLR,,0.00,WeatherDisplay:10.37,2013-04-21 04:27:00,
2013-04-21 00:32:00,53.5,51.5,30.19,NW,312,0.0,0.0,93,0.00,CLR,,0.00,WeatherDisplay:10.37,2013-04-21 04:32:00,
2013-04-21 00:37:00,53.4,51.7,30.19,NW,312,0.0,0.0,94,0.00,CLR,,0.00,WeatherDisplay:10.37,2013-04-21 04:37:00,
2013-04-21 00:42:00,53.3,51.6,30.18,NW,312,0.0,0.0,94,0.00,CLR,,0.00,WeatherDisplay:10.37,2013-04-21 04:42:00,
2013-04-21 00:47:00,53.2,51.5,30.18,NW,312,0.0,0.0,94,0.00,CLR,,0.00,WeatherDisplay:10.37,2013-04-21 04:47:00,
2013-04-21 00:52:00,53.0,51.3,30.18,NW,312,0.0,0.0,94,0.00,CLR,,0.00,WeatherDisplay:10.37,2013-04-21 04:52:00,
2013-04-21 00:57:00,52.9,51.2,30.18,NW,312,0.0,0.0,94,0.00,CLR,,0.00,WeatherDisplay:10.37,2013-04-21 04:57:00,
2013-04-21 01:02:00,52.8,51.1,30.18,NW,312,0.0,0.0,94,0.00,CLR,,0.00,WeatherDisplay:10.37,2013-04-21 05:02:00,
2013-04-21 01:07:00,52.7,51.3,30.18,NW,312,0.0,0.0,95,0.00,CLR,,0.00,WeatherDisplay:10.37,2013-04-21 05:07:00,
2013-04-21 01:12:00,52.6,51.2,30.17,NW,312,0.0,0.0,95,0.00,CLR,,0.00,WeatherDisplay:10.37,2013-04-21 05:12:00,
2013-04-21 01:17:00,52.5,51.1,30.17,NW,312,0.0,0.0,95,0.00,CLR,,0.00,WeatherDisplay:10.37,2013-04-21 05:17:00,
2013-04-21 01:22:00,52.6,51.2,30.17,NW,312,0.0,0.0,95,0.00,CLR,,0.00,WeatherDisplay:10.37,2013-04-21 05:22:00,
2013-04-21 01:27:00,52.7,51.6,30.17,NW,312,0.0,0.0,96,0.00,CLR,,0.00,WeatherDisplay:10.37,2013-04-21 05:27:00,
2013-04-21 01:32:00,52.9,51.8,30.17,NW,312,0.0,0.0,96,0.00,CLR,,0.00,WeatherDisplay:10.37,2013-04-21 05:32:00,
2013-04-21 01:37:00,53.0,51.9,30.17,NW,312,0.0,0.0,96,0.00,CLR,,0.00,WeatherDisplay:10.37,2013-04-21 05:37:00,
2013-04-21 01:42:00,53.2,52.1,30.16,NW,312,0.0,0.0,96,0.00,CLR,,0.00,WeatherDisplay:10.37,2013-04-21 05:42:00,
2013-04-21 01:47:00,53.4,52.3,30.16,NW,312,1.1,0.0,96,0.00,CLR,,0.00,WeatherDisplay:10.37,2013-04-21 05:47:00,
2013-04-21 01:52:00,53.6,52.5,30.16,NW,312,0.0,0.0,96,0.00,CLR,,0.00,WeatherDisplay:10.37,2013-04-21 05:52:00,
2013-04-21 01:57:00,53.9,52.8,30.16,NW,312,0.0,0.0,96,0.00,CLR,,0.00,WeatherDisplay:10.37,2013-04-21 05:57:00,
2013-04-21 02:02:00,54.1,53.0,30.16,NW,312,0.0,0.0,96,0.00,CLR,,0.00,WeatherDisplay:10.37,2013-04-21 06:02:00,
2013-04-21 02:07:00,54.3,53.2,30.16,NW,312,0.0,0.0,96,0.00,CLR,,0.00,WeatherDisplay:10.37,2013-04-21 06:07:00,
2013-04-21 02:12:00,54.4,53.0,30.15,NW,312,0.0,0.0,95,0.00,CLR,,0.00,WeatherDisplay:10.37,2013-04-21 06:12:00,
2013-04-21 02:17:00,54.6,53.2,30.16,NW,312,0.0,0.0,95,0.00,CLR,,0.00,WeatherDisplay:10.37,2013-04-21 06:17:00,
2013-04-21 02:22:00,54.8,53.4,30.16,NW,312,0.0,0.0,95,0.00,CLR,,0.00,WeatherDisplay:10.37,2013-04-21 06:22:00,
2013-04-21 02:27:00,55.0,53.3,30.15,NW,312,0.0,0.0,94,0.00,CLR,,0.00,WeatherDisplay:10.37,2013-04-21 06:27:00,
2013-04-21 02:32:00,55.2,53.5,30.16,NW,312,0.0,0.0,94,0.00,CLR,,0.00,WeatherDisplay:10.37,2013-04-21 06:32:00,
2013-04-21 02:37:00,55.3,53.6,30.16,NW,312,0.0,0.0,94,0.00,CLR,,0.00,WeatherDisplay:10.37,2013-04-21 06:37:00,
2013-04-21 02:42:00,55.5,53.8,30.16,NW,312,0.0,0.0,94,0.00,CLR,,0.00,WeatherDisplay:10.37,2013-04-21 06:42:00,
2013-04-21 02:47:00,55.6,53.9,30.15,NW,312,0.0,0.0,94,0.00,CLR,,0.00,WeatherDisplay:10.37,2013-04-21 06:47:00,
2013-04-21 02:52:00,55.7,54.0,30.15,NW,312,0.0,0.0,94,0.00,CLR,,0.00,WeatherDisplay:10.37,2013-04-21 06:52:00,
2013-04-21 02:57:00,55.8,53.8,30.15,NW,312,0.0,0.0,93,0.00,CLR,,0.00,WeatherDisplay:10.37,2013-04-21 06:57:00,
2013-04-21 03:02:00,55.9,53.9,30.15,NW,312,0.0,0.0,93,0.00,CLR,,0.00,WeatherDisplay:10.37,2013-04-21 07:02:00,
2013-04-21 03:07:00,55.9,53.9,30.15,NW,312,0.0,0.0,93,0.00,CLR,,0.00,WeatherDisplay:10.37,2013-04-21 07:07:00,
2013-04-21 03:12:00,56.0,53.7,30.15,NW,312,0.0,0.0,92,0.00,CLR,,0.00,WeatherDisplay:10.37,2013-04-21 07:12:00,
2013-04-21 03:17:00,56.0,54.0,30.15,NW,312,0.0,0.0,93,0.00,CLR,,0.00,WeatherDisplay:10.37,2013-04-21 07:17:00,
2013-04-21 03:22:00,56.1,53.8,30.15,NW,312,0.0,0.0,92,0.00,CLR,,0.00,WeatherDisplay:10.37,2013-04-21 07:22:00,
2013-04-21 03:27:00,56.2,53.9,30.15,NW,312,0.0,0.0,92,0.00,CLR,,0.00,WeatherDisplay:10.37,2013-04-21 07:27:00,
2013-04-21 03:32:00,56.2,53.9,30.15,NW,312,0.0,0.0,92,0.00,CLR,,0.00,WeatherDisplay:10.37,2013-04-21 07:32:00,
2013-04-21 03:37:00,56.3,53.7,30.14,NW,312,0.0,0.0,91,0.00,CLR,,0.00,WeatherDisplay:10.37,2013-04-21 07:37:00,
2013-04-21 03:42:00,56.3,53.7,30.14,NW,312,0.0,0.0,91,0.00,CLR,,0.00,WeatherDisplay:10.37,2013-04-21 07:42:00,
2013-04-21 03:47:00,56.3,53.7,30.15,NW,312,0.0,0.0,91,0.00,CLR,,0.00,WeatherDisplay:10.37,2013-04-21 07:47:00,
2013-04-21 03:52:00,56.3,53.7,30.15,NW,312,0.0,0.0,91,0.00,CLR,,0.00,WeatherDisplay:10.37,2013-04-21 07:52:00,
2013-04-21 03:57:00,56.3,53.7,30.14,NW,312,0.0,0.0,91,0.00,CLR,,0.00,WeatherDisplay:10.37,2013-04-21 07:57:00,
2013-04-21 04:02:00,56.2,53.6,30.14,NW,312,0.0,0.0,91,0.00,CLR,,0.00,WeatherDisplay:10.37,2013-04-21 08:02:00,
2013-04-21 04:07:00,56.2,53.6,30.14,NW,312,0.0,0.0,91,0.00,CLR,,0.00,WeatherDisplay:10.37,2013-04-21 08:07:00,
2013-04-21 04:12:00,56.0,53.1,30.14,NW,312,0.0,0.0,90,0.00,CLR,,0.00,WeatherDisplay:10.37,2013-04-21 08:12:00,
2013-04-21 04:17:00,55.8,52.9,30.14,NW,312,0.0,0.0,90,0.00,CLR,,0.00,WeatherDisplay:10.37,2013-04-21 08:17:00,
2013-04-21 04:22:00,55.7,53.1,30.14,NW,312,0.0,0.0,91,0.00,CLR,,0.00,WeatherDisplay:10.37,2013-04-21 08:22:00,
2013-04-21 04:27:00,55.5,52.6,30.14,NW,312,0.0,0.0,90,0.00,CLR,,0.00,WeatherDisplay:10.37,2013-04-21 08:27:00,
2013-04-21 04:32:00,55.3,52.7,30.14,NW,312,0.0,0.0,91,0.00,CLR,,0.00,WeatherDisplay:10.37,2013-04-21 08:32:00,
2013-04-21 04:37:00,55.1,52.5,30.14,NW,312,0.0,0.0,91,0.00,CLR,,0.00,WeatherDisplay:10.37,2013-04-21 08:37:00,
2013-04-21 04:42:00,55.0,52.7,30.14,NW,312,0.0,0.0,92,0.00,CLR,,0.00,WeatherDisplay:10.37,2013-04-21 08:42:00,
2013-04-21 04:47:00,54.9,52.6,30.14,NW,312,0.0,0.0,92,0.00,CLR,,0.00,WeatherDisplay:10.37,2013-04-21 08:47:00,
2013-04-21 04:52:00,54.7,52.1,30.14,NW,312,0.0,0.0,91,0.00,CLR,,0.00,WeatherDisplay:10.37,2013-04-21 08:52:00,
2013-04-21 04:57:00,54.5,52.2,30.14,NW,312,0.0,0.0,92,0.00,CLR,,0.00,WeatherDisplay:10.37,2013-04-21 08:57:00,
2013-04-21 05:02:00,54.4,52.1,30.14,NW,312,0.0,0.0,92,0.00,CLR,,0.00,WeatherDisplay:10.37,2013-04-21 09:02:00,
2013-04-21 05:07:00,54.3,52.0,30.14,NW,312,0.0,0.0,92,0.00,CLR,,0.00,WeatherDisplay:10.37,2013-04-21 09:07:00,
2013-04-21 05:12:00,54.2,52.2,30.14,NW,312,0.0,0.0,93,0.00,CLR,,0.00,WeatherDisplay:10.37,2013-04-21 09:12:00,
2013-04-21 05:17:00,54.1,52.1,30.14,NW,312,0.0,0.0,93,0.00,CLR,,0.00,WeatherDisplay:10.37,2013-04-21 09:17:00,
2013-04-21 05:22:00,54.0,52.0,30.14,NW,312,0.0,0.0,93,0.00,CLR,,0.00,WeatherDisplay:10.37,2013-04-21 09:22:00,
2013-04-21 05:27:00,53.8,51.8,30.14,NW,312,0.0,0.0,93,0.00,CLR,,0.00,WeatherDisplay:10.37,2013-04-21 09:27:00,
2013-04-21 05:32:00,53.7,51.7,30.14,NW,312,0.0,0.0,93,0.00,CLR,,0.00,WeatherDisplay:10.37,2013-04-21 09:32:00,
2013-04-21 05:37:00,53.7,51.7,30.14,NW,312,0.0,0.0,93,0.00,CLR,,0.00,WeatherDisplay:10.37,2013-04-21 09:37:00,
2013-04-21 05:42:00,53.6,51.6,30.14,NW,312,0.0,0.0,93,0.00,CLR,,0.00,WeatherDisplay:10.37,2013-04-21 09:42:00,
2013-04-21 05:47:00,53.6,51.6,30.14,NW,312,0.0,0.0,93,0.00,CLR,,0.00,WeatherDisplay:10.37,2013-04-21 09:47:00,
2013-04-21 05:52:00,53.6,51.6,30.14,NW,312,0.0,0.0,93,0.00,CLR,,0.00,WeatherDisplay:10.37,2013-04-21 09:52:00,
2013-04-21 05:57:00,53.6,51.6,30.14,NW,312,0.0,0.0,93,0.00,CLR,,0.00,WeatherDisplay:10.37,2013-04-21 09:57:00,
2013-04-21 06:02:00,53.7,52.0,30.14,NW,312,0.0,0.0,94,0.00,CLR,,0.00,WeatherDisplay:10.37,2013-04-21 10:02:00,
2013-04-21 06:07:00,53.7,52.0,30.14,NW,312,0.0,0.0,94,0.00,CLR,,0.00,WeatherDisplay:10.37,2013-04-21 10:07:00,
2013-04-21 06:12:00,53.8,51.8,30.15,NW,312,0.0,0.0,93,0.00,CLR,,0.00,WeatherDisplay:10.37,2013-04-21 10:12:00,
2013-04-21 06:17:00,53.8,51.8,30.15,NW,312,0.0,0.0,93,0.00,CLR,,0.00,WeatherDisplay:10.37,2013-04-21 10:17:00,
2013-04-21 06:22:00,53.7,51.7,30.15,NW,312,0.0,0.0,93,0.00,CLR,,0.00,WeatherDisplay:10.37,2013-04-21 10:22:00,
2013-04-21 06:27:00,53.7,51.7,30.15,NW,312,0.0,0.0,93,0.00,CLR,,0.00,WeatherDisplay:10.37,2013-04-21 10:27:00,
2013-04-21 06:32:00,53.7,51.7,30.15,NW,312,0.0,0.0,93,0.00,CLR,,0.00,WeatherDisplay:10.37,2013-04-21 10:32:00,
2013-04-21 06:37:00,53.6,51.6,30.15,NW,312,0.0,0.0,93,0.00,CLR,,0.00,WeatherDisplay:10.37,2013-04-21 10:37:00,
2013-04-21 06:42:00,53.6,51.6,30.15,NW,312,0.0,0.0,93,0.00,CLR,,0.00,WeatherDisplay:10.37,2013-04-21 10:42:00,
2013-04-21 06:47:00,53.5,51.5,30.15,NW,312,0.0,0.0,93,0.00,CLR,,0.00,WeatherDisplay:10.37,2013-04-21 10:47:00,
2013-04-21 06:52:00,53.4,51.4,30.15,NW,312,0.0,0.0,93,0.00,CLR,,0.00,WeatherDisplay:10.37,2013-04-21 10:52:00,
2013-04-21 06:57:00,53.3,51.3,30.15,NW,312,0.0,0.0,93,0.00,CLR,,0.00,WeatherDisplay:10.37,2013-04-21 10:57:00,
2013-04-21 07:02:00,53.1,50.8,30.15,NW,312,0.0,0.0,92,0.00,CLR,,0.00,WeatherDisplay:10.37,2013-04-21 11:02:00,
2013-04-21 07:07:00,53.0,51.0,30.14,NW,312,0.0,0.0,93,0.00,CLR,,0.00,WeatherDisplay:10.37,2013-04-21 11:07:00,
2013-04-21 07:12:00,53.0,51.3,30.15,NW,312,0.0,0.0,94,0.00,CLR,,0.00,WeatherDisplay:10.37,2013-04-21 11:12:00,
2013-04-21 07:17:00,53.0,51.3,30.15,NW,312,0.0,0.0,94,0.00,CLR,,0.00,WeatherDisplay:10.37,2013-04-21 11:17:00,
2013-04-21 07:22:00,53.0,51.3,30.15,NW,312,0.0,0.0,94,0.00,CLR,,0.00,WeatherDisplay:10.37,2013-04-21 11:22:00,
2013-04-21 07:27:00,53.0,51.3,30.15,NW,312,0.0,0.0,94,0.00,CLR,,0.00,WeatherDisplay:10.37,2013-04-21 11:27:00,
2013-04-21 07:32:00,53.1,51.4,30.15,NW,312,0.0,0.0,94,0.00,CLR,,0.00,WeatherDisplay:10.37,2013-04-21 11:32:00,
2013-04-21 07:37:00,53.3,51.9,30.16,NW,312,0.0,0.0,95,0.00,CLR,,0.00,WeatherDisplay:10.37,2013-04-21 11:37:00,
2013-04-21 07:42:00,53.5,52.1,30.16,NW,312,0.0,0.0,95,0.00,CLR,,0.00,WeatherDisplay:10.37,2013-04-21 11:42:00,
2013-04-21 07:47:00,53.7,52.3,30.16,NW,312,0.0,0.0,95,0.00,CLR,,0.00,WeatherDisplay:10.37,2013-04-21 11:47:00,
2013-04-21 07:52:00,53.9,52.2,30.17,NW,312,0.0,0.0,94,0.00,CLR,,0.00,WeatherDisplay:10.37,2013-04-21 11:52:00,
2013-04-21 07:57:00,54.1,52.4,30.17,NW,312,0.0,0.0,94,0.00,CLR,,0.00,WeatherDisplay:10.37,2013-04-21 11:57:00,
2013-04-21 08:02:00,54.2,52.5,30.17,NW,312,0.0,0.0,94,0.00,CLR,,0.00,WeatherDisplay:10.37,2013-04-21 12:02:00,
2013-04-21 08:07:00,54.4,52.7,30.17,NW,312,0.0,0.0,94,0.00,CLR,,0.00,WeatherDisplay:10.37,2013-04-21 12:07:00,
2013-04-21 08:12:00,54.6,52.9,30.17,NW,312,0.0,0.0,94,0.00,CLR,,0.00,WeatherDisplay:10.37,2013-04-21 12:12:00,
2013-04-21 08:17:00,54.8,53.1,30.16,NW,312,0.0,0.0,94,0.00,CLR,,0.00,WeatherDisplay:10.37,2013-04-21 12:17:00,
2013-04-21 08:22:00,55.0,53.3,30.17,NW,312,0.0,0.0,94,0.00,CLR,,0.00,WeatherDisplay:10.37,2013-04-21 12:22:00,
2013-04-21 08:27:00,55.2,53.8,30.17,NW,312,0.0,0.0,95,0.00,CLR,,0.00,WeatherDisplay:10.37,2013-04-21 12:27:00,
2013-04-21 08:32:00,55.4,54.0,30.16,NW,312,0.0,0.0,95,0.00,CLR,,0.00,WeatherDisplay:10.37,2013-04-21 12:32:00,
2013-04-21 08:37:00,55.7,54.3,30.16,NW,312,0.0,0.0,95,0.00,CLR,,0.00,WeatherDisplay:10.37,2013-04-21 12:37:00,
2013-04-21 08:42:00,56.2,54.8,30.16,NW,312,0.0,0.0,95,0.00,CLR,,0.00,WeatherDisplay:10.37,2013-04-21 12:42:00,
2013-04-21 08:47:00,56.7,55.3,30.16,NW,312,0.0,0.0,95,0.00,CLR,,0.00,WeatherDisplay:10.37,2013-04-21 12:47:00,
2013-04-21 08:52:00,57.3,55.9,30.16,NW,312,0.0,0.0,95,0.00,CLR,,0.00,WeatherDisplay:10.37,2013-04-21 12:52:00,
2013-04-21 08:57:00,58.1,56.7,30.16,NNW,331,0.0,0.0,95,0.00,CLR,,0.00,WeatherDisplay:10.37,2013-04-21 12:57:00,
2013-04-21 09:02:00,58.9,56.9,30.16,NNW,331,1.0,1.0,93,0.00,CLR,,0.00,WeatherDisplay:10.37,2013-04-21 13:02:00,
2013-04-21 09:07:00,59.7,57.4,30.16,NNW,331,1.1,0.0,92,0.00,CLR,,0.00,WeatherDisplay:10.37,2013-04-21 13:07:00,
2013-04-21 09:12:00,60.4,57.5,30.16,North,355,2.3,2.3,90,0.00,CLR,,0.00,WeatherDisplay:10.37,2013-04-21 13:12:00,
2013-04-21 09:17:00,61.0,57.7,30.16,North,355,1.1,0.0,89,0.00,CLR,,0.00,WeatherDisplay:10.37,2013-04-21 13:17:00,
2013-04-21 09:22:00,61.5,57.9,30.16,North,355,1.1,1.1,88,0.00,CLR,,0.00,WeatherDisplay:10.37,2013-04-21 13:22:00,
2013-04-21 09:27:00,61.9,58.0,30.16,NNE,24,0.0,0.0,87,0.00,CLR,,0.00,WeatherDisplay:10.37,2013-04-21 13:27:00,
2013-04-21 09:32:00,62.2,58.0,30.16,NNE,24,0.0,0.0,86,0.00,CLR,,0.00,WeatherDisplay:10.37,2013-04-21 13:32:00,
2013-04-21 09:37:00,62.6,58.4,30.16,NNE,24,1.1,1.1,86,0.00,CLR,,0.00,WeatherDisplay:10.37,2013-04-21 13:37:00,
2013-04-21 09:42:00,63.1,58.5,30.16,NNE,24,0.0,0.0,85,0.00,CLR,,0.00,WeatherDisplay:10.37,2013-04-21 13:42:00,
2013-04-21 09:47:00,63.6,59.0,30.16,ESE,121,1.1,1.1,85,0.00,CLR,,0.00,WeatherDisplay:10.37,2013-04-21 13:47:00,
2013-04-21 09:52:00,64.0,59.1,30.16,SE,129,2.3,2.3,84,0.00,CLR,,0.00,WeatherDisplay:10.37,2013-04-21 13:52:00,
2013-04-21 09:57:00,64.3,59.0,30.17,SE,134,1.1,0.0,83,0.00,CLR,,0.00,WeatherDisplay:10.37,2013-04-21 13:57:00,
2013-04-21 10:02:00,64.5,58.9,30.17,SE,143,0.0,0.2,82,0.00,CLR,,0.00,WeatherDisplay:10.37,2013-04-21 14:02:00,
2013-04-21 10:07:00,64.7,59.4,30.17,SE,140,1.0,0.0,83,0.00,CLR,,0.00,WeatherDisplay:10.37,2013-04-21 14:07:00,
2013-04-21 10:12:00,64.9,59.3,30.17,North,355,1.1,1.1,82,0.00,CLR,,0.00,WeatherDisplay:10.37,2013-04-21 14:12:00,
2013-04-21 10:17:00,65.2,59.2,30.17,NE,43,1.1,0.0,81,0.00,CLR,,0.00,WeatherDisplay:10.37,2013-04-21 14:17:00,
2013-04-21 10:22:00,65.5,59.5,30.17,SSE,150,1.1,1.1,81,0.00,CLR,,0.00,WeatherDisplay:10.37,2013-04-21 14:22:00,
2013-04-21 10:27:00,65.9,59.9,30.17,East,90,3.5,3.5,81,0.00,CLR,,0.00,WeatherDisplay:10.37,2013-04-21 14:27:00,
2013-04-21 10:32:00,66.3,59.9,30.17,SE,140,1.1,1.1,80,0.00,CLR,,0.00,WeatherDisplay:10.37,2013-04-21 14:32:00,
2013-04-21 10:37:00,66.6,60.6,30.18,SE,140,0.0,0.0,81,0.00,CLR,,0.00,WeatherDisplay:10.37,2013-04-21 14:37:00,
2013-04-21 10:42:00,66.9,60.5,30.17,SE,128,1.1,0.0,80,0.00,CLR,,0.00,WeatherDisplay:10.37,2013-04-21 14:42:00,
2013-04-21 10:47:00,67.1,60.4,30.18,SE,128,1.1,1.1,79,0.00,CLR,,0.00,WeatherDisplay:10.37,2013-04-21 14:47:00,
2013-04-21 10:52:00,67.3,60.2,30.18,East,90,0.0,0.0,78,0.00,CLR,,0.00,WeatherDisplay:10.37,2013-04-21 14:52:00,
2013-04-21 10:57:00,67.5,60.8,30.18,NNE,26,2.3,2.3,79,0.00,CLR,,0.00,WeatherDisplay:10.37,2013-04-21 14:57:00,
2013-04-21 11:02:00,67.6,60.9,30.18,NNE,26,1.1,0.0,79,0.00,CLR,,0.00,WeatherDisplay:10.37,2013-04-21 15:02:00,
2013-04-21 11:07:00,67.5,60.8,30.18,NNE,27,1.1,0.0,79,0.00,CLR,,0.00,WeatherDisplay:10.37,2013-04-21 15:07:00,
2013-04-21 11:12:00,67.5,60.8,30.18,North,355,1.1,1.1,79,0.00,CLR,,0.00,WeatherDisplay:10.37,2013-04-21 15:12:00,
2013-04-21 11:17:00,67.6,60.5,30.19,North,5,1.1,1.1,78,0.00,CLR,,0.00,WeatherDisplay:10.37,2013-04-21 15:17:00,
2013-04-21 11:22:00,67.6,60.5,30.19,SE,128,1.1,0.0,78,0.00,CLR,,0.00,WeatherDisplay:10.37,2013-04-21 15:22:00,
2013-04-21 11:27:00,67.8,61.0,30.19,SE,128,0.0,0.0,79,0.00,CLR,,0.00,WeatherDisplay:10.37,2013-04-21 15:27:00,
2013-04-21 11:32:00,68.1,61.0,30.19,SE,124,0.0,0.0,78,0.00,CLR,,0.00,WeatherDisplay:10.37,2013-04-21 15:32:00,
2013-04-21 11:37:00,68.2,61.1,30.19,ESE,123,0.0,0.0,78,0.00,CLR,,0.00,WeatherDisplay:10.37,2013-04-21 15:37:00,
2013-04-21 11:42:00,68.2,61.1,30.19,SSE,152,1.1,1.1,78,0.00,CLR,,0.00,WeatherDisplay:10.37,2013-04-21 15:42:00,
2013-04-21 11:47:00,68.4,61.3,30.19,ENE,70,2.3,2.3,78,0.00,CLR,,0.00,WeatherDisplay:10.37,2013-04-21 15:47:00,
2013-04-21 11:52:00,68.5,61.4,30.20,ENE,73,1.1,0.0,78,0.00,CLR,,0.00,WeatherDisplay:10.37,2013-04-21 15:52:00,
2013-04-21 11:57:00,68.3,61.5,30.19,ENE,76,0.0,0.0,79,0.00,CLR,,0.00,WeatherDisplay:10.37,2013-04-21 15:57:00,
2013-04-21 12:02:00,68.1,61.3,30.19,NNW,346,1.1,1.1,79,0.00,CLR,,0.00,WeatherDisplay:10.37,2013-04-21 16:02:00,
2013-04-21 12:07:00,68.0,61.6,30.19,NNW,346,1.1,1.1,80,0.00,CLR,,0.00,WeatherDisplay:10.37,2013-04-21 16:07:00,
2013-04-21 12:12:00,67.9,61.5,30.19,NNW,346,0.0,0.0,80,0.00,CLR,,0.00,WeatherDisplay:10.37,2013-04-21 16:12:00,
2013-04-21 12:17:00,67.7,61.3,30.19,NNE,17,1.1,1.1,80,0.00,CLR,,0.00,WeatherDisplay:10.37,2013-04-21 16:17:00,
2013-04-21 12:22:00,67.5,61.1,30.19,NE,36,3.5,0.0,80,0.00,CLR,,0.00,WeatherDisplay:10.37,2013-04-21 16:22:00,
2013-04-21 12:27:00,67.4,61.4,30.19,NE,36,0.0,0.0,81,0.00,CLR,,0.00,WeatherDisplay:10.37,2013-04-21 16:27:00,
2013-04-21 12:32:00,67.3,61.6,30.19,NNW,337,3.5,3.5,82,0.00,CLR,,0.00,WeatherDisplay:10.37,2013-04-21 16:32:00,
2013-04-21 12:37:00,67.2,61.5,30.19,NNW,338,1.1,0.0,82,0.00,CLR,,0.00,WeatherDisplay:10.37,2013-04-21 16:37:00,
2013-04-21 12:42:00,67.2,61.5,30.19,NE,34,3.5,3.5,82,0.00,CLR,,0.00,WeatherDisplay:10.37,2013-04-21 16:42:00,
2013-04-21 12:47:00,67.2,61.5,30.19,NE,34,1.1,1.1,82,0.00,CLR,,0.00,WeatherDisplay:10.37,2013-04-21 16:47:00,
2013-04-21 12:52:00,67.2,61.5,30.19,SE,124,1.1,1.1,82,0.00,CLR,,0.00,WeatherDisplay:10.37,2013-04-21 16:52:00,
2013-04-21 12:57:00,67.4,61.7,30.19,East,97,1.1,0.0,82,0.00,CLR,,0.00,WeatherDisplay:10.37,2013-04-21 16:57:00,
2013-04-21 13:02:00,67.5,61.8,30.19,East,97,0.0,0.0,82,0.00,CLR,,0.00,WeatherDisplay:10.37,2013-04-21 17:02:00,
2013-04-21 13:07:00,67.8,62.4,30.18,North,5,3.5,3.5,83,0.00,CLR,,0.00,WeatherDisplay:10.37,2013-04-21 17:07:00,
2013-04-21 13:12:00,68.2,62.5,30.18,North,5,1.1,1.1,82,0.00,CLR,,0.00,WeatherDisplay:10.37,2013-04-21 17:12:00,
2013-04-21 13:17:00,68.6,62.9,30.18,North,5,0.0,0.0,82,0.00,CLR,,0.00,WeatherDisplay:10.37,2013-04-21 17:17:00,
2013-04-21 13:22:00,69.1,63.0,30.17,ENE,67,1.1,1.1,81,0.00,CLR,,0.00,WeatherDisplay:10.37,2013-04-21 17:22:00,
2013-04-21 13:27:00,69.5,62.7,30.17,ENE,71,2.3,2.3,79,0.00,CLR,,0.00,WeatherDisplay:10.37,2013-04-21 17:27:00,
2013-04-21 13:32:00,69.6,62.8,30.17,East,95,1.1,0.0,79,0.00,CLR,,0.00,WeatherDisplay:10.37,2013-04-21 17:32:00,
2013-04-21 13:37:00,69.7,62.5,30.17,North,350,1.1,1.1,78,0.00,CLR,,0.00,WeatherDisplay:10.37,2013-04-21 17:37:00,
2013-04-21 13:42:00,69.9,63.4,30.17,North,355,3.5,3.5,80,0.00,CLR,,0.00,WeatherDisplay:10.37,2013-04-21 17:42:00,
2013-04-21 13:47:00,70.2,63.4,30.17,ENE,69,2.3,2.3,79,0.00,CLR,,0.00,WeatherDisplay:10.37,2013-04-21 17:47:00,
2013-04-21 13:52:00,70.4,63.6,30.17,ENE,66,1.1,1.1,79,0.00,CLR,,0.00,WeatherDisplay:10.37,2013-04-21 17:52:00,
2013-04-21 13:57:00,70.7,63.5,30.17,ENE,68,0.0,0.2,78,0.00,CLR,,0.00,WeatherDisplay:10.37,2013-04-21 17:57:00,
2013-04-21 14:02:00,70.7,63.1,30.17,North,355,3.5,3.5,77,0.00,CLR,,0.00,WeatherDisplay:10.37,2013-04-21 18:02:00,
2013-04-21 14:07:00,70.4,63.2,30.16,NNE,13,3.5,3.5,78,0.00,CLR,,0.00,WeatherDisplay:10.37,2013-04-21 18:07:00,
2013-04-21 14:12:00,70.1,62.9,30.17,NNE,13,1.1,0.0,78,0.00,CLR,,0.00,WeatherDisplay:10.37,2013-04-21 18:12:00,
2013-04-21 14:17:00,69.8,62.6,30.17,NNE,13,1.1,1.1,78,0.00,CLR,,0.00,WeatherDisplay:10.37,2013-04-21 18:17:00,
2013-04-21 14:22:00,69.5,62.7,30.17,North,9,1.1,1.1,79,0.00,CLR,,0.00,WeatherDisplay:10.37,2013-04-21 18:22:00,
2013-04-21 14:27:00,69.3,62.9,30.16,NNE,19,1.1,1.1,80,0.00,CLR,,0.00,WeatherDisplay:10.37,2013-04-21 18:27:00,
2013-04-21 14:32:00,69.1,62.7,30.15,NNW,346,3.5,3.5,80,0.00,CLR,,0.00,WeatherDisplay:10.37,2013-04-21 18:32:00,
2013-04-21 14:37:00,68.9,62.5,30.15,NW,322,1.1,0.0,80,0.00,CLR,,0.00,WeatherDisplay:10.37,2013-04-21 18:37:00,
2013-04-21 14:42:00,68.7,62.6,30.15,NNE,30,1.1,1.1,81,0.00,CLR,,0.00,WeatherDisplay:10.37,2013-04-21 18:42:00,
2013-04-21 14:47:00,68.5,62.8,30.16,NNE,30,0.0,0.0,82,0.00,CLR,,0.00,WeatherDisplay:10.37,2013-04-21 18:47:00,
2013-04-21 14:52:00,68.5,62.8,30.16,NNE,30,1.1,0.0,82,0.00,CLR,,0.00,WeatherDisplay:10.37,2013-04-21 18:52:00,
2013-04-21 14:57:00,68.5,63.1,30.16,NNE,30,1.1,0.0,83,0.00,CLR,,0.00,WeatherDisplay:10.37,2013-04-21 18:57:00,
2013-04-21 15:02:00,68.5,63.1,30.15,NNE,30,1.1,1.1,83,0.00,CLR,,0.00,WeatherDisplay:10.37,2013-04-21 19:02:00,
2013-04-21 15:07:00,68.5,63.1,30.15,North,349,0.0,0.0,83,0.00,CLR,,0.00,WeatherDisplay:10.37,2013-04-21 19:07:00,
2013-04-21 15:12:00,68.5,63.5,30.15,North,349,1.0,0.0,84,0.00,CLR,,0.00,WeatherDisplay:10.37,2013-04-21 19:12:00,
2013-04-21 15:17:00,68.4,63.0,30.14,North,360,1.1,0.0,83,0.00,CLR,,0.00,WeatherDisplay:10.37,2013-04-21 19:17:00,
2013-04-21 15:22:00,68.3,62.9,30.14,North,355,1.1,1.1,83,0.00,CLR,,0.00,WeatherDisplay:10.37,2013-04-21 19:22:00,
2013-04-21 15:27:00,68.1,62.7,30.14,North,355,1.1,0.0,83,0.00,CLR,,0.00,WeatherDisplay:10.37,2013-04-21 19:27:00,
2013-04-21 15:32:00,68.0,62.6,30.13,SSE,166,3.5,3.5,83,0.00,CLR,,0.00,WeatherDisplay:10.37,2013-04-21 19:32:00,
2013-04-21 15:37:00,68.0,62.6,30.13,SSE,165,1.1,0.0,83,0.00,CLR,,0.00,WeatherDisplay:10.37,2013-04-21 19:37:00,
2013-04-21 15:42:00,67.9,62.5,30.13,SE,133,1.1,1.1,83,0.00,CLR,,0.00,WeatherDisplay:10.37,2013-04-21 19:42:00,
2013-04-21 15:47:00,67.7,62.0,30.12,ESE,118,1.1,1.1,82,0.00,CLR,,0.00,WeatherDisplay:10.37,2013-04-21 19:47:00,
2013-04-21 15:52:00,67.6,62.3,30.12,East,80,1.1,0.0,83,0.00,CLR,,0.00,WeatherDisplay:10.37,2013-04-21 19:52:00,
2013-04-21 15:57:00,67.5,62.2,30.12,SE,138,1.1,0.0,83,0.00,CLR,,0.00,WeatherDisplay:10.37,2013-04-21 19:57:00,
2013-04-21 16:02:00,67.5,62.2,30.12,ESE,107,1.1,1.1,83,0.00,CLR,,0.00,WeatherDisplay:10.37,2013-04-21 20:02:00,
2013-04-21 16:07:00,67.5,61.8,30.12,ESE,107,1.1,0.0,82,0.00,CLR,,0.00,WeatherDisplay:10.37,2013-04-21 20:07:00,
2013-04-21 16:12:00,67.3,61.6,30.11,ESE,114,1.1,0.0,82,0.00,CLR,,0.00,WeatherDisplay:10.37,2013-04-21 20:12:00,
2013-04-21 16:17:00,67.2,61.9,30.12,ESE,115,0.0,0.0,83,0.00,CLR,,0.00,WeatherDisplay:10.37,2013-04-21 20:17:00,
2013-04-21 16:22:00,67.2,61.9,30.11,North,360,1.1,1.1,83,0.00,CLR,,0.00,WeatherDisplay:10.37,2013-04-21 20:22:00,
2013-04-21 16:27:00,67.1,61.4,30.11,North,5,0.0,0.0,82,0.00,CLR,,0.00,WeatherDisplay:10.37,2013-04-21 20:27:00,
2013-04-21 16:32:00,67.0,61.7,30.11,North,5,0.0,0.0,83,0.00,CLR,,0.00,WeatherDisplay:10.37,2013-04-21 20:32:00,
2013-04-21 16:37:00,67.0,61.7,30.10,SE,143,2.0,2.0,83,0.00,CLR,,0.00,WeatherDisplay:10.37,2013-04-21 20:37:00,
2013-04-21 16:42:00,67.0,61.7,30.11,North,360,1.1,1.1,83,0.00,CLR,,0.00,WeatherDisplay:10.37,2013-04-21 20:42:00,
2013-04-21 16:47:00,66.9,61.6,30.11,NE,55,1.1,1.1,83,0.00,CLR,,0.00,WeatherDisplay:10.37,2013-04-21 20:47:00,
2013-04-21 16:52:00,66.9,61.9,30.10,NNE,15,1.1,1.1,84,0.00,CLR,,0.00,WeatherDisplay:10.37,2013-04-21 20:52:00,
2013-04-21 16:57:00,66.9,61.9,30.10,SE,130,4.0,4.0,84,0.00,CLR,,0.00,WeatherDisplay:10.37,2013-04-21 20:57:00,
2013-04-21 17:02:00,66.8,61.8,30.10,North,5,0.0,0.0,84,0.00,CLR,,0.00,WeatherDisplay:10.37,2013-04-21 21:02:00,
2013-04-21 17:07:00,66.8,62.1,30.10,North,5,1.1,1.1,85,0.00,CLR,,0.00,WeatherDisplay:10.37,2013-04-21 21:07:00,
2013-04-21 17:12:00,66.8,61.8,30.10,NNE,32,1.1,0.0,84,0.00,CLR,,0.00,WeatherDisplay:10.37,2013-04-21 21:12:00,
2013-04-21 17:17:00,66.8,62.1,30.10,NE,42,0.0,0.1,85,0.00,CLR,,0.00,WeatherDisplay:10.37,2013-04-21 21:17:00,
2013-04-21 17:22:00,66.7,61.7,30.10,NE,40,2.3,0.0,84,0.00,CLR,,0.00,WeatherDisplay:10.37,2013-04-21 21:22:00,
2013-04-21 17:27:00,66.7,62.0,30.11,North,349,3.5,3.5,85,0.00,CLR,,0.00,WeatherDisplay:10.37,2013-04-21 21:27:00,
2013-04-21 17:32:00,66.7,62.0,30.11,North,349,1.1,1.1,85,0.00,CLR,,0.00,WeatherDisplay:10.37,2013-04-21 21:32:00,
2013-04-21 17:37:00,66.7,62.0,30.12,North,351,2.3,2.3,85,0.00,CLR,,0.00,WeatherDisplay:10.37,2013-04-21 21:37:00,
2013-04-21 17:42:00,66.7,62.0,30.12,NNE,30,2.3,2.3,85,0.00,CLR,,0.00,WeatherDisplay:10.37,2013-04-21 21:42:00,
2013-04-21 17:47:00,66.6,62.3,30.12,North,5,2.0,2.0,86,0.00,CLR,,0.00,WeatherDisplay:10.37,2013-04-21 21:47:00,
2013-04-21 17:52:00,66.5,62.2,30.13,North,5,1.1,1.1,86,0.00,CLR,,0.00,WeatherDisplay:10.37,2013-04-21 21:52:00,
2013-04-21 17:57:00,66.3,62.0,30.13,North,5,1.1,0.0,86,0.00,CLR,,0.00,WeatherDisplay:10.37,2013-04-21 21:57:00,
2013-04-21 18:02:00,66.3,62.0,30.12,ENE,67,3.5,3.5,86,0.00,CLR,,0.00,WeatherDisplay:10.37,2013-04-21 22:02:00,
2013-04-21 18:07:00,66.2,62.2,30.12,NNW,340,1.1,0.0,87,0.00,CLR,,0.00,WeatherDisplay:10.37,2013-04-21 22:07:00,
2013-04-21 18:12:00,66.1,62.1,30.13,NNW,346,1.1,0.0,87,0.00,CLR,,0.00,WeatherDisplay:10.37,2013-04-21 22:12:00,
2013-04-21 18:17:00,66.0,62.0,30.13,NNW,346,2.0,2.0,87,0.00,CLR,,0.00,WeatherDisplay:10.37,2013-04-21 22:17:00,
2013-04-21 18:22:00,66.0,62.0,30.13,NNW,346,1.1,0.0,87,0.00,CLR,,0.00,WeatherDisplay:10.37,2013-04-21 22:22:00,
2013-04-21 18:27:00,66.0,62.0,30.13,NNE,28,3.5,3.5,87,0.00,CLR,,0.00,WeatherDisplay:10.37,2013-04-21 22:27:00,
2013-04-21 18:32:00,65.9,61.9,30.13,ENE,74,1.1,0.0,87,0.00,CLR,,0.00,WeatherDisplay:10.37,2013-04-21 22:32:00,
2013-04-21 18:37:00,65.9,62.2,30.13,North,355,1.1,0.0,88,0.00,CLR,,0.00,WeatherDisplay:10.37,2013-04-21 22:37:00,
2013-04-21 18:42:00,65.9,62.2,30.13,North,355,1.1,0.0,88,0.00,CLR,,0.00,WeatherDisplay:10.37,2013-04-21 22:42:00,
2013-04-21 18:47:00,65.9,62.2,30.13,North,355,1.1,0.0,88,0.00,CLR,,0.00,WeatherDisplay:10.37,2013-04-21 22:47:00,
2013-04-21 18:52:00,65.9,62.2,30.12,North,355,1.1,1.1,88,0.00,CLR,,0.00,WeatherDisplay:10.37,2013-04-21 22:52:00,
2013-04-21 18:57:00,65.8,62.1,30.12,North,355,1.1,0.0,88,0.00,CLR,,0.00,WeatherDisplay:10.37,2013-04-21 22:57:00,
2013-04-21 19:02:00,65.8,62.1,30.11,NE,42,1.1,1.1,88,0.00,CLR,,0.00,WeatherDisplay:10.37,2013-04-21 23:02:00,
2013-04-21 19:07:00,65.8,62.1,30.11,NE,52,3.5,3.5,88,0.00,CLR,,0.00,WeatherDisplay:10.37,2013-04-21 23:07:00,
2013-04-21 19:12:00,65.8,62.1,30.11,NE,47,1.1,1.1,88,0.00,CLR,,0.00,WeatherDisplay:10.37,2013-04-21 23:12:00,
2013-04-21 19:17:00,65.7,62.0,30.12,NE,47,0.0,0.0,88,0.00,CLR,,0.00,WeatherDisplay:10.37,2013-04-21 23:17:00,
2013-04-21 19:22:00,65.7,62.4,30.13,North,360,1.1,1.1,89,0.00,CLR,,0.00,WeatherDisplay:10.37,2013-04-21 23:22:00,
2013-04-21 19:27:00,65.7,62.4,30.13,East,83,3.5,3.5,89,0.00,CLR,,0.00,WeatherDisplay:10.37,2013-04-21 23:27:00,
2013-04-21 19:32:00,65.7,62.0,30.13,NNW,348,1.1,1.4,88,0.00,CLR,,0.00,WeatherDisplay:10.37,2013-04-21 23:32:00,
2013-04-21 19:37:00,65.6,62.3,30.14,South,184,1.1,1.1,89,0.00,CLR,,0.00,WeatherDisplay:10.37,2013-04-21 23:37:00,
2013-04-21 19:42:00,65.6,62.3,30.14,South,182,1.1,0.0,89,0.00,CLR,,0.00,WeatherDisplay:10.37,2013-04-21 23:42:00,
2013-04-21 19:47:00,65.6,62.3,30.15,West,281,2.3,2.3,89,0.00,CLR,,0.00,WeatherDisplay:10.37,2013-04-21 23:47:00,
2013-04-21 19:52:00,65.6,62.3,30.15,NNW,338,0.0,0.0,89,0.00,CLR,,0.00,WeatherDisplay:10.37,2013-04-21 23:52:00,
2013-04-21 19:57:00,65.6,62.3,30.15,North,5,1.1,0.0,89,0.00,CLR,,0.00,WeatherDisplay:10.37,2013-04-21 23:57:00,
2013-04-21 20:02:00,65.6,61.9,30.15,North,5,3.0,3.0,88,0.00,CLR,,0.00,WeatherDisplay:10.37,2013-04-22 00:02:00,
2013-04-21 20:07:00,65.7,62.4,30.15,NNW,346,3.5,3.5,89,0.00,CLR,,0.00,WeatherDisplay:10.37,2013-04-22 00:07:00,
2013-04-21 20:12:00,65.7,62.0,30.15,NW,317,2.0,2.0,88,0.00,CLR,,0.00,WeatherDisplay:10.37,2013-04-22 00:12:00,
2013-04-21 20:17:00,65.7,62.4,30.15,NW,319,0.0,0.0,89,0.00,CLR,,0.00,WeatherDisplay:10.37,2013-04-22 00:17:00,
2013-04-21 20:22:00,65.7,62.4,30.15,NNW,332,4.0,4.0,89,0.00,CLR,,0.00,WeatherDisplay:10.37,2013-04-22 00:22:00,
2013-04-21 20:27:00,65.7,62.4,30.15,NNW,332,0.0,0.0,89,0.00,CLR,,0.00,WeatherDisplay:10.37,2013-04-22 00:27:00,
2013-04-21 20:32:00,65.7,62.4,30.16,NNW,332,1.1,1.1,89,0.00,CLR,,0.00,WeatherDisplay:10.37,2013-04-22 00:32:00,
2013-04-21 20:37:00,65.7,62.4,30.16,NNE,26,3.5,3.5,89,0.00,CLR,,0.00,WeatherDisplay:10.37,2013-04-22 00:37:00,
2013-04-21 20:42:00,65.7,62.4,30.15,NNE,19,1.1,0.0,89,0.00,CLR,,0.00,WeatherDisplay:10.37,2013-04-22 00:42:00,
2013-04-21 20:47:00,65.7,62.7,30.14,NE,40,2.3,2.3,90,0.00,CLR,,0.00,WeatherDisplay:10.37,2013-04-22 00:47:00,
2013-04-21 20:52:00,65.6,62.6,30.14,NE,39,3.5,3.5,90,0.00,CLR,,0.00,WeatherDisplay:10.37,2013-04-22 00:52:00,
2013-04-21 20:57:00,65.5,62.8,30.14,NNE,28,1.1,1.1,91,0.00,CLR,,0.00,WeatherDisplay:10.37,2013-04-22 00:57:00,
2013-04-21 21:02:00,65.3,62.6,30.14,NNE,28,0.0,0.0,91,0.00,CLR,,0.00,WeatherDisplay:10.37,2013-04-22 01:02:00,
2013-04-21 21:07:00,65.2,62.5,30.14,NNE,27,3.5,3.5,91,0.00,CLR,,0.00,WeatherDisplay:10.37,2013-04-22 01:07:00,
2013-04-21 21:12:00,65.2,62.5,30.14,NNE,29,2.0,2.0,91,0.00,CLR,,0.00,WeatherDisplay:10.37,2013-04-22 01:12:00,
2013-04-21 21:17:00,65.1,62.4,30.13,ENE,69,1.1,1.1,91,0.00,CLR,,0.00,WeatherDisplay:10.37,2013-04-22 01:17:00,
2013-04-21 21:22:00,65.1,62.4,30.13,North,9,3.5,3.5,91,0.00,CLR,,0.00,WeatherDisplay:10.37,2013-04-22 01:22:00,
2013-04-21 21:27:00,65.1,62.4,30.13,SE,128,1.1,1.1,91,0.00,CLR,,0.00,WeatherDisplay:10.37,2013-04-22 01:27:00,
2013-04-21 21:32:00,65.1,62.4,30.14,East,84,1.1,1.1,91,0.00,CLR,,0.00,WeatherDisplay:10.37,2013-04-22 01:32:00,
2013-04-21 21:37:00,65.2,62.5,30.14,East,88,2.3,2.3,91,0.00,CLR,,0.00,WeatherDisplay:10.37,2013-04-22 01:37:00,
2013-04-21 21:42:00,65.2,62.5,30.14,NNE,26,1.1,1.1,91,0.00,CLR,,0.00,WeatherDisplay:10.37,2013-04-22 01:42:00,
2013-04-21 21:47:00,65.2,62.5,30.14,North,10,1.1,1.1,91,0.00,CLR,,0.00,WeatherDisplay:10.37,2013-04-22 01:47:00,
2013-04-21 21:52:00,65.2,62.5,30.14,NNW,344,3.5,3.5,91,0.00,CLR,,0.00,WeatherDisplay:10.37,2013-04-22 01:52:00,
2013-04-21 21:57:00,65.2,62.5,30.14,NNW,344,0.0,0.0,91,0.00,CLR,,0.00,WeatherDisplay:10.37,2013-04-22 01:57:00,
2013-04-21 22:02:00,65.1,62.4,30.14,NNW,333,2.3,2.3,91,0.00,CLR,,0.00,WeatherDisplay:10.37,2013-04-22 02:02:00,
2013-04-21 22:07:00,65.0,62.6,30.14,NW,317,1.1,0.0,92,0.00,CLR,,0.00,WeatherDisplay:10.37,2013-04-22 02:07:00,
2013-04-21 22:12:00,65.0,62.6,30.14,NNW,346,0.0,0.0,92,0.00,CLR,,0.00,WeatherDisplay:10.37,2013-04-22 02:12:00,
2013-04-21 22:17:00,64.9,62.5,30.14,North,355,1.1,1.1,92,0.00,CLR,,0.00,WeatherDisplay:10.37,2013-04-22 02:17:00,
2013-04-21 22:22:00,64.8,62.4,30.14,NNE,22,1.1,0.0,92,0.00,CLR,,0.00,WeatherDisplay:10.37,2013-04-22 02:22:00,
2013-04-21 22:27:00,64.7,62.3,30.14,NNE,22,0.0,0.2,92,0.00,CLR,,0.00,WeatherDisplay:10.37,2013-04-22 02:27:00,
2013-04-21 22:32:00,64.7,62.3,30.14,SE,134,0.0,0.0,92,0.00,CLR,,0.00,WeatherDisplay:10.37,2013-04-22 02:32:00,
2013-04-21 22:37:00,64.7,62.6,30.14,South,175,2.3,2.3,93,0.00,CLR,,0.00,WeatherDisplay:10.37,2013-04-22 02:37:00,
2013-04-21 22:42:00,64.6,62.5,30.14,South,171,1.1,0.0,93,0.00,CLR,,0.00,WeatherDisplay:10.37,2013-04-22 02:42:00,
2013-04-21 22:47:00,64.5,62.4,30.14,East,83,3.5,0.0,93,0.00,CLR,,0.00,WeatherDisplay:10.37,2013-04-22 02:47:00,
2013-04-21 22:52:00,64.5,62.4,30.13,North,355,1.1,0.0,93,0.00,CLR,,0.00,WeatherDisplay:10.37,2013-04-22 02:52:00,
2013-04-21 22:57:00,64.4,62.3,30.14,North,349,2.3,2.3,93,0.00,CLR,,0.00,WeatherDisplay:10.37,2013-04-22 02:57:00,
2013-04-21 23:02:00,64.4,62.6,30.14,North,349,0.0,0.0,94,0.00,CLR,,0.00,WeatherDisplay:10.37,2013-04-22 03:02:00,
2013-04-21 23:07:00,64.3,62.5,30.14,North,349,0.0,0.0,94,0.01,RA,,0.01,WeatherDisplay:10.37,2013-04-22 03:07:00,
2013-04-21 23:12:00,64.3,62.5,30.13,NE,41,1.1,0.0,94,0.01,RA,,0.01,WeatherDisplay:10.37,2013-04-22 03:12:00,
2013-04-21 23:17:00,64.2,62.4,30.13,NE,44,1.1,0.0,94,0.01,,,0.01,WeatherDisplay:10.37,2013-04-22 03:17:00,
2013-04-21 23:22:00,64.1,62.3,30.13,NE,47,2.3,0.0,94,0.01,CLR,,0.01,WeatherDisplay:10.37,2013-04-22 03:22:00,
2013-04-21 23:27:00,64.1,62.3,30.13,NE,47,1.1,0.0,94,0.01,CLR,,0.01,WeatherDisplay:10.37,2013-04-22 03:27:00,
2013-04-21 23:32:00,64.1,62.3,30.13,NNW,344,2.0,2.0,94,0.01,CLR,,0.01,WeatherDisplay:10.37,2013-04-22 03:32:00,
2013-04-21 23:37:00,64.0,62.2,30.14,NNW,345,0.0,0.1,94,0.01,CLR,,0.01,WeatherDisplay:10.37,2013-04-22 03:37:00,
2013-04-21 23:42:00,64.0,62.2,30.13,NNW,345,0.0,0.1,94,0.01,CLR,,0.01,WeatherDisplay:10.37,2013-04-22 03:42:00,
2013-04-21 23:47:00,64.0,62.2,30.12,NNE,31,1.1,0.0,94,0.01,CLR,,0.01,WeatherDisplay:10.37,2013-04-22 03:47:00,
2013-04-21 23:52:00,64.0,62.2,30.13,ENE,57,2.3,2.3,94,0.01,CLR,,0.01,WeatherDisplay:10.37,2013-04-22 03:52:00,
2013-04-21 23:57:00,64.1,62.3,30.13,SE,144,1.1,1.1,94,0.01,CLR,,0.01,WeatherDisplay:10.37,2013-04-22 03:57:00,